Regional Weather Roundup
Issued by NWS

Home | Current Version | Previous Version | Text Only | Print | Product List | Glossary On
Versions: 1 2 3 4 5 6 7 8 9 10 11 12 13 14 15 16 17 18 19 20 21 22 23 24 25 26 27 28 29 30 31 32 33 34 35 36 37 38 39 40 41 42 43 44 45 46 47 48 49 50
000
ASUS43 KMPX 231610
RWRMN
WEATHER ROUNDUP FOR MINNESOTA
NATIONAL WEATHER SERVICE TWIN CITIES/CHANHASSEN MN
1000 AM CST TUE JAN 23 2018


NOTE: "FAIR" INDICATES FEW OR NO CLOUDS BELOW 12,000 FEET WITH NO
SIGNIFICANT WEATHER AND/OR OBSTRUCTIONS TO VISIBILITY. N/A MEANS
CURRENT SKY AND/OR WEATHER CONDITIONS ARE NOT AVAILABLE.

MNZ060>063-068>070-231700-
   Twin Cities Metro

CITY           SKY/WX    TMP DP  RH WIND       PRES   REMARKS
TWIN CITIES    PTSUNNY   18  13  80 NW14      30.03R WCI   4
ST PAUL        CLOUDY    18  13  80 NW12      30.04R WCI   5
CRYSTAL        FAIR      17   8  67 N10       30.03R WCI   5
BLAINE         MOSUNNY   18  10  73 NW9       30.02R WCI   6
LAKEVILLE      CLOUDY    18  16  93 N9        30.03R WCI   6
EDEN PRAIRIE   FAIR      20  11  68 N9        30.03R WCI   9
SOUTH ST PAUL  CLOUDY    20  13  76 NW7       30.03R WCI  11
LAKE ELMO      FAIR      19  14  79 NW9       30.02R WCI   9
$$
MNZ001>005-007-008-013>017-022>024-027-028-231700-
   Northwest Minnesota

CITY           SKY/WX    TMP DP  RH WIND       PRES   REMARKS
BEMIDJI        FAIR      13  10  85 CALM      30.06R
HALLOCK        CLOUDY    18  16  93 SE9       30.09S WCI   6
ROSEAU         CLOUDY    16  10  79 E5        30.09R WCI   9
WARROAD        FAIR      12   7  79 E6        30.10R WCI   3
THIEF RVR FALL CLOUDY    18  14  84 SE5       30.09R WCI  11
CROOKSTON      PTSUNNY   18  16  93 S3        30.12R
FOSSTON        CLOUDY    19  16  86 SE5       30.08R WCI  13
DETROIT LAKES  CLOUDY    19  18  93 CALM      30.08R
MOORHEAD       DRIZZLE   19  16  86 CALM      30.12R
PARK RAPIDS    FAIR      18  12  77 N3        30.05R
MAHNOMEN       CLOUDY    19  14  82 S3        30.08R
$$
MNZ006-009>011-018-025>026-231700-
   North Central Minnesota

CITY           SKY/WX    TMP DP  RH WIND       PRES   REMARKS
BAUDETTE       FAIR       8   2  76 E6        30.08R WCI  -2
FLAG ISLAND    PTSUNNY   10   1  67 E3        30.10R
INTL FALLS     FAIR       3  -3  76 NE6       30.09R WCI  -8
WASKISH        FAIR       9   7  92 CALM      30.09R
BIG FORK       FAIR       7   1  78 CALM      30.05R
LONGVILLE      FAIR      10   5  79 CALM      30.05R
GRAND RAPIDS   FAIR       8   2  76 NW7       30.06R WCI  -3
CRANE LAKE     FAIR       0  -6  78 CALM      30.10R
ORR            FAIR       1  -4  78 CALM      30.02R
COOK           PTSUNNY    1  -2  85 N3        30.05R
WALKER         FAIR      13   8  81 NW5       30.07R WCI   5
$$
MNZ012-019>021-037-231700-
   Northeast Minnesota

CITY           SKY/WX    TMP DP  RH WIND       PRES   REMARKS
DULUTH         FAIR       7  -1  70 N9        29.98R WCI  -7
ELY            FAIR       0  -8  71 NE5       30.02S WCI -10
HIBBING        FAIR       4  -3  73 N7        30.02S WCI  -8
EVELETH        FAIR       5  -5  64 NE7       30.03R WCI  -7
DULUTH HARBOR  CLOUDY    12   7  79 W7        30.06R WCI   2
TWO HARBORS    FAIR      19  10  68 NW3       29.98R
SILVER BAY     FAIR      14   5  67 NE3       29.97R
GRAND MARAIS     N/A     21   5  50 N14G28    29.96R WCI   8
G MARAIS ARPRT FAIR      10  -2  56 N14       29.92S WCI  -5
$$
MNZ029>031-032-039>041-046>048-054>057-064-231700-
   West Central Minnesota

CITY           SKY/WX    TMP DP  RH WIND       PRES   REMARKS
FERGUS FALLS   CLOUDY    19  16  86 CALM      30.09R
MORRIS         CLOUDY    21  16  79 CALM      30.09R
ALEXANDRIA     FAIR      21  14  74 N5        30.07R WCI  15
ELBOW LAKE     CLOUDY    20  16  83 CALM      30.09R
WADENA         PTSUNNY   18  12  79 N3        30.07R
GLENWOOD       FAIR      21  16  79 N6        30.07R WCI  14
APPLETON       CLOUDY    23  18  80 NW7       30.11R WCI  15
BENSON         MOSUNNY   25  16  68 NE6       30.11R WCI  18
ORTONVILLE     CLOUDY    21  16  79 W6        30.11R WCI  14
MADISON        CLOUDY    25  19  80 NW7       30.12R WCI  17
WILLMAR        FAIR      21  16  79 N14       30.10R WCI   8
$$
MNZ033>034-036-042>043-049>051-058-059-231700-
   Central Minnesota

CITY           SKY/WX    TMP DP  RH WIND       PRES   REMARKS
ST CLOUD       FAIR      19  12  74 N12       30.04R WCI   7
SAUK CENTRE      N/A     19  13  77 N10       30.07R WCI   8
PAYNESVILLE    FAIR      21  17  83 N8        30.06R WCI  12
AITKIN         FAIR      10   3  72 N6        30.03R WCI   1
PINE RIVER     FAIR      12   7  79 N7        30.09R WCI   2
BRAINERD       FAIR      15   8  73 N7        30.05R WCI   5
STAPLES        FAIR      16  10  79 N5        30.06R WCI   9
LONG PRAIRIE   FAIR      19  14  79 NW8       30.06R WCI   9
LITTLE FALLS   FAIR      19   9  63 N3        30.06R
LITCHFIELD     FAIR      21  18  86 N12       30.05S WCI   9
BUFFALO        FAIR      19  13  74 N8        30.06R WCI   9
MAPLE LAKE     FAIR      21  15  78 MISG      30.05S
HUTCHINSON     FAIR      22  15  74 N14       30.06R WCI   9
$$
MNZ037-044-045-052-053-231700-
   East Central Minnesota

CITY           SKY/WX    TMP DP  RH WIND       PRES   REMARKS
PRINCETON      FAIR      19  10  68 N9        30.04R WCI   9
MORA           FAIR      16   9  73 N6        30.05R WCI   7
CAMBRIDGE      FAIR      18   7  62 N8        30.04R WCI   7
RUSH CITY      CLOUDY    13   6  74 N10       30.04R WCI   0
MOOSE LAKE     FAIR      10   1  67 NW6       30.02R WCI   1
HINCKLEY       FAIR      14   7  73 NW10      30.03R WCI   1
CLOQUET        FAIR       7  -2  66 NW9       30.01R WCI  -7
MCGREGOR       FAIR      12   3  67 N6        30.04R WCI   3
$$
MNZ071>073-080-081-089-090-097-098-231700-
   Southwest Minnesota

CITY           SKY/WX    TMP DP  RH WIND       PRES   REMARKS
MONTEVIDEO     PTSUNNY   25  19  80 N8        30.11R WCI  16
GRANITE FALLS  PTSUNNY   25  19  77 NW9       30.13R WCI  15
CANBY          CLOUDY    23  20  87 NW7       30.12R WCI  15
MARSHALL       CLOUDY    22  18  85 N8        30.11R WCI  12
REDWOOD FALLS  MOSUNNY   23  17  78 N10G18    30.09R WCI  12
OLIVIA         SUNNY     23  18  80 N12       30.08R WCI  12
PIPESTONE      CLOUDY    19  18  93 N7        30.07R WCI  10
WINDOM         SUNNY     19   7  58 NW9       30.06R WCI   9
WORTHINGTON    CLOUDY    20  18  92 NW17      30.08R WCI   5
JACKSON        CLOUDY    21  18  86 N12G21    30.06R WCI   9
TRACY          CLOUDY    22  19  89 NW9       30.09R WCI  12
SLAYTON        CLOUDY    20  18  89 NW12      30.08R WCI   8
$$
MNZ065>067-074>077-082>085-091>093-231700-
   South Central Minnesota

CITY           SKY/WX    TMP DP  RH WIND       PRES   REMARKS
MANKATO        FAIR      18  13  80 NW12      30.05R WCI   5
NEW ULM        SUNNY     19  12  73 NW14      30.07R WCI   6
ST JAMES       SUNNY     19  16  86 NW12      30.08R WCI   7
FAIRMONT       SUNNY     23  19  85 NW15      30.07R WCI  10
GLENCOE        FAIR      19  16  86 NW7       30.05R WCI  10
FARIBAULT      CLOUDY    19  16  86 NW7       30.02R WCI  10
OWATONNA       CLOUDY    19  16  86 N14       30.01R WCI   6
WASECA         CLOUDY    19  16  86 NW13      30.04R WCI   7
ALBERT LEA     CLOUDY    18  14  86 NW9G20    30.01R WCI   6
$$
MNZ078>079-086>088-094>096-231700-
   Southeast Minnesota

CITY           SKY/WX    TMP DP  RH WIND       PRES   REMARKS
ROCHESTER      CLOUDY    18  16  92 NW18      29.96R WCI   2
RED WING       CLOUDY    19  12  73 NW6       30.00R WCI  11
STANTON        CLOUDY    21  16  80 NW12      30.00R WCI   9
DODGE CENTER   CLOUDY    18  16  93 NW12      29.98R WCI   5
WINONA         CLOUDY    23  18  80 NW14      29.96R WCI  11
PRESTON        CLOUDY    18  16  89 N14       29.95R WCI   5
$$
ABBREVIATIONS USED IN REMARKS
   TC - TEMPERATURES IN CELSIUS
  WCI - WIND CHILL INDEX
   HX - HEAT INDEX
  VSB - VISIBILITY
$$



USA.gov is the U.S. government's official web portal to all federal, state and local government web resources and services.